OBJECT Y, 57026

Orbit data source: Space-Track

You're viewing an Uncataloged Satellite

Recently launched and/or uncataloged satellites may have evolving metadata. Metadata may include but not limited to: Owner, Maufacturer, Bus, Motor, and Mission.

OBJECT Y, 57026 is a Chinese satellite in SSO that was launched on Thu, 15 Jun 2023 UTC via a CHANG ZHENG 2D launch vehicle from the Taiyaun Space Center, China (TSC). Unknown objects in Earth's orbit typically refer to objects detected orbiting the Earth but have not yet been identified or cataloged. These objects could be anything from previously untracked satellites, spent rocket stages, debris from satellite collisions, or even natural meteoroids temporarily captured by Earth's gravity.

Loading next visibility...
Identifier
57026, 2023-085Y
Orbit
SSO
Country
Flag of CNCN / PRC
Related business
None
Manufacturer
Unknown
Mission
Operational Commercial Imaging
Bus & Motor
Unknown
Mass
Unknown
Launch date (UTC)
2023-06-15 (3 years ago)
Launch vehicle
CHANG ZHENG 2D
Launch site
Taiyaun Space Center, China (TSC)
Object type
Unknown
Shape & HBR
Box, 0.8 m
Radar Cross Section
2.000 m², Medium (>0.1 m² and < 1m²)

Expand to show TLE details & history
Last TLE update: 2 days ago

TLE from 2 days ago
0 OBJECT Y
1 57026U 23085Y   26171.40829076  .00013117  00000-0  37921-3 0  9999
2 57026  97.4967 284.8325 0006075  63.4021 296.7845 15.35747256167314
Epoch: 2026-06-20T09:47Z
TLE epoch observation values (Epoch: 2026-06-20T09:47:56.321Z)
Latitude
0.00004°
Longitude
-130.77552°
Altitude
459.941 km
Speed
7.638 km/s
True Right ascension
18h 59m 19s
True Declination
0° 00' 00"
Sunlit
Object was in full shadow at epoch
Visualization orbit readout
Latitude
Unknown
Longitude
Unknown
Altitude
Unknown
Speed
Unknown
Apparent Right ascension
Unknown
Apparent Declination
Unknown
Sunlit
N/A
Visualization observer readout
Local Sidereal Time
21:32:39
Azimuth
Unknown
Elevation
Unknown
Doppler factor
Unknown
Orbital elements
Apogee altitude
459.802 km
Perigee altitude
451.499 km
Semi-major axis
6,833.788 km
Eccentricity
0.00061
Inclination
97.4967°
RAAN
284.8325°
Arg. of periapsis
63.4021°
True anomaly
296.72233°
Mean anomaly
296.7845°
Eccentric anomaly
296.75342°
Mean motion
3.84194 °/min
Orbital period
93.7 mins
BSTAR
0.00037921
Loading maneuver chart data...
Computing Atmospheric mass density...
Loading historical data...
Loading historical data...
Loading historical data...
Loading historical data...
Loading historical data...
Loading historical data...
Loading historical data...

Documentation

Showing up to 5 results
|